QPF
0.00 0.00 0.00 0.00 0.00 0.00 0.00 0.00 0.00 0.00 0.00 0.00 0.00 0.00 0.00 0.00 0.00 0.00 0.00 0.00 0.00 0.00 0.00 0.00 0.00 0.00 0.00 0.00 0.00 0.00 0.00 0.00 0.00 0.00 0.00 0.00 0.00 0.00 0.00 0.00 0.00 0.00 0.00 0.00 0.00
0.00 0.00 0.00 0.00 0.00 0.00 0.00 0.00 0.00 0.00 0.00 0.00 0.00 0.00 0.00 0.00 0.00 0.00 0.00 0.00 0.00 0.00 0.00 0.00 0.00 0.00 0.00 0.00 0.00 0.00 0.00 0.00 0.00 0.00 0.00 0.00 0.00 0.00 0.00 0.00 0.00 0.00 0.00 0.00 0.00
0.00 0.00 0.00 0.00 0.00 0.00 0.00 0.00 0.00 0.00 0.00 0.00 0.00 0.00 0.00 0.00 0.00 0.00 0.00 0.00 0.00 0.00 0.00 0.00 0.00 0.00 0.00 0.00 0.00 0.00 0.00 0.00 0.00 0.00 0.00 0.00 0.00 0.00 0.00 0.00 0.00 0.00 0.00 0.00 0.00
0.00 0.00 0.00 0.00 0.00 0.00 0.00 0.00 0.00 0.00 0.00 0.00 0.00 0.00 0.00 0.00 0.00 0.00 0.00 0.00 0.00 0.00 0.00 0.00 0.00 0.00 0.00 0.00 0.00 0.00 0.00 0.00 0.00 0.00 0.00 0.00 0.00 0.00 0.00 0.00 0.00 0.00 0.00 0.00 0.00
0.00 0.00 0.00 0.00 0.00 0.00 0.00 0.00 0.00 0.00 0.00 0.00 0.00 0.00 0.00 0.00 0.00 0.00 0.00 0.00 0.00 0.00 0.00 0.00 0.00 0.00 0.00 0.00 0.00 0.00 0.00 0.00 0.00 0.00 0.00 0.00 0.00 0.00 0.00 0.00 0.00 0.00 0.00 0.00 0.00
0.00 0.00 0.00 0.00 0.00 0.00 0.00 0.00 0.00 0.00 0.00 0.00 0.00 0.00 0.00 0.00 0.00 0.00 0.00 0.00 0.00 0.00 0.00 0.00 0.00 0.00 0.00 0.00 0.00 0.00 0.00 0.00 0.00 0.00 0.00 0.00 0.00 0.00 0.00 0.00 0.00 0.00 0.00 0.00 0.03
0.00 0.00 0.00 0.00 0.00 0.00 0.00 0.00 0.00 0.00 0.00 0.00 0.00 0.00 0.00 0.00 0.00 0.00 0.00 0.00 0.00 0.00 0.00 0.00 0.00 0.00 0.00 0.00 0.00 0.00 0.00 0.00 0.00 0.00 0.00 0.00 0.00 0.00 0.00 0.00 0.00 0.00 0.00 0.01 0.04
0.00 0.00 0.00 0.00 0.00 0.00 0.00 0.00 0.00 0.00 0.00 0.00 0.00 0.00 0.00 0.00 0.00 0.00 0.00 0.00 0.00 0.00 0.00 0.00 0.00 0.00 0.00 0.00 0.00 0.00 0.00 0.00 0.00 0.00 0.00 0.00 0.00 0.00 0.00 0.00 0.00 0.00 0.00 0.00 0.00
0.00 0.00 0.00 0.00 0.00 0.00 0.00 0.00 0.00 0.00 0.00 0.00 0.00 0.00 0.00 0.00 0.00 0.00 0.00 0.00 0.00 0.00 0.00 0.00 0.00 0.00 0.00 0.00 0.00 0.00 0.00 0.00 0.00 0.00 0.00 0.00 0.00 0.00 0.00 0.00 0.00 0.00 0.00 0.01 0.02
0.00 0.00 0.00 0.00 0.00 0.00 0.00 0.00 0.00 0.00 0.00 0.00 0.00 0.00 0.00 0.00 0.00 0.00 0.00 0.00 0.00 0.00 0.00 0.00 0.00 0.00 0.00 0.00 0.00 0.00 0.00 0.00 0.00 0.00 0.00 0.00 0.00 0.00 0.00 0.00 0.00 0.00 0.00 0.01 0.07
0.00 0.00 0.00 0.00 0.00 0.00 0.00 0.00 0.00 0.00 0.00 0.00 0.00 0.00 0.00 0.00 0.00 0.00 0.00 0.00 0.00 0.00 0.00 0.00 0.00 0.00 0.00 0.00 0.00 0.00 0.00 0.00 0.00 0.00 0.00 0.00 0.00 0.00 0.00 0.00 0.00 0.00 0.00 0.02 0.02
0.00 0.00 0.00 0.00 0.00 0.00 0.00 0.00 0.00 0.00 0.00 0.00 0.00 0.00 0.00 0.00 0.00 0.00 0.00 0.00 0.00 0.00 0.00 0.00 0.00 0.00 0.00 0.00 0.00 0.00 0.00 0.00 0.00 0.00 0.00 0.00 0.00 0.00 0.00 0.00 0.00 0.00 0.01 0.03 0.02
0.00 0.00 0.00 0.00 0.00 0.00 0.00 0.00 0.00 0.00 0.00 0.00 0.00 0.00 0.00 0.00 0.00 0.00 0.00 0.00 0.00 0.00 0.00 0.00 0.00 0.00 0.00 0.00 0.00 0.00 0.00 0.00 0.00 0.00 0.00 0.00 0.00 0.00 0.00 0.00 0.00 0.00 0.09 0.10 0.02
0.00 0.00 0.00 0.00 0.00 0.00 0.00 0.00 0.00 0.00 0.00 0.00 0.00 0.00 0.00 0.00 0.00 0.00 0.00 0.00 0.00 0.00 0.00 0.00 0.00 0.00 0.00 0.00 0.00 0.00 0.00 0.00 0.00 0.00 0.00 0.00 0.00 0.00 0.00 0.01 0.04 0.07 0.16 0.13 0.06
0.00 0.00 0.00 0.00 0.00 0.00 0.00 0.00 0.00 0.00 0.00 0.00 0.00 0.00 0.00 0.00 0.00 0.00 0.00 0.00 0.00 0.00 0.00 0.00 0.00 0.00 0.00 0.00 0.00 0.00 0.00 0.00 0.00 0.00 0.00 0.00 0.00 0.00 0.00 0.02 0.04 0.09 0.13 0.08 0.05
0.00 0.00 0.00 0.00 0.00 0.00 0.00 0.00 0.00 0.00 0.00 0.00 0.00 0.00 0.00 0.00 0.00 0.00 0.00 0.00 0.00 0.00 0.00 0.00 0.00 0.00 0.00 0.00 0.00 0.00 0.00 0.00 0.00 0.00 0.00 0.00 0.00 0.00 0.01 0.02 0.01 0.01 0.02 0.06 0.03
0.00 0.00 0.00 0.00 0.00 0.00 0.00 0.00 0.00 0.00 0.00 0.00 0.00 0.00 0.00 0.00 0.00 0.00 0.00 0.00 0.00 0.00 0.00 0.00 0.00 0.00 0.00 0.00 0.00 0.00 0.00 0.00 0.00 0.00 0.00 0.00 0.00 0.00 0.00 0.00 0.00 0.00 0.00 0.00 0.00
0.00 0.00 0.00 0.00 0.00 0.00 0.00 0.00 0.00 0.00 0.00 0.00 0.00 0.00 0.00 0.00 0.00 0.00 0.00 0.00 0.00 0.00 0.00 0.00 0.00 0.00 0.00 0.00 0.00 0.00 0.00 0.00 0.00 0.00 0.00 0.00 0.00 0.00 0.00 0.00 0.00 0.00 0.00 0.00 0.00
0.00 0.00 0.00 0.00 0.00 0.00 0.00 0.00 0.00 0.00 0.00 0.00 0.00 0.00 0.00 0.00 0.00 0.00 0.00 0.00 0.00 0.00 0.00 0.00 0.00 0.00 0.00 0.00 0.00 0.00 0.00 0.00 0.00 0.00 0.00 0.00 0.00 0.00 0.00 0.00 0.00 0.00 0.00 0.00 0.00
0.00 0.00 0.00 0.00 0.00 0.00 0.00 0.00 0.00 0.00 0.00 0.00 0.00 0.00 0.00 0.00 0.00 0.00 0.00 0.00 0.00 0.00 0.00 0.00 0.00 0.00 0.00 0.00 0.00 0.00 0.00 0.00 0.00 0.00 0.00 0.00 0.00 0.00 0.00 0.00 0.00 0.00 0.00 0.00 0.00
0.00 0.00 0.00 0.00 0.00 0.00 0.00 0.00 0.00 0.00 0.00 0.00 0.00 0.00 0.00 0.00 0.00 0.00 0.00 0.00 0.00 0.00 0.00 0.00 0.00 0.00 0.00 0.00 0.00 0.00 0.00 0.00 0.00 0.00 0.00 0.00 0.00 0.00 0.00 0.00 0.00 0.00 0.00 0.00 0.00
0.00 0.00 0.00 0.00 0.00 0.00 0.00 0.00 0.00 0.00 0.00 0.00 0.00 0.00 0.00 0.00 0.00 0.00 0.00 0.00 0.00 0.00 0.00 0.00 0.00 0.00 0.00 0.00 0.00 0.00 0.00 0.00 0.00 0.00 0.00 0.00 0.00 0.00 0.00 0.00 0.00 0.00 0.00 0.00 0.00
0.00 0.00 0.00 0.00 0.00 0.00 0.00 0.00 0.00 0.00 0.00 0.00 0.00 0.00 0.00 0.00 0.00 0.00 0.00 0.00 0.00 0.00 0.00 0.00 0.00 0.00 0.00 0.00 0.00 0.00 0.00 0.00 0.00 0.00 0.00 0.00 0.00 0.00 0.00 0.00 0.00 0.00 0.00 0.00 0.00
0.00 0.00 0.00 0.00 0.00 0.00 0.00 0.00 0.00 0.00 0.00 0.00 0.00 0.00 0.00 0.00 0.00 0.00 0.00 0.00 0.00 0.00 0.00 0.00 0.00 0.00 0.00 0.00 0.00 0.00 0.00 0.00 0.00 0.00 0.00 0.00 0.00 0.00 0.00 0.00 0.00 0.00 0.00 0.00 0.00
0.00 0.00 0.00 0.00 0.00 0.00 0.00 0.00 0.00 0.00 0.00 0.00 0.00 0.00 0.00 0.00 0.00 0.00 0.00 0.00 0.00 0.00 0.00 0.00 0.00 0.00 0.00 0.00 0.00 0.00 0.00 0.00 0.00 0.00 0.00 0.00 0.00 0.00 0.00 0.00 0.00 0.00 0.00 0.00 0.00
0.00 0.00 0.00 0.00 0.00 0.00 0.00 0.00 0.00 0.00 0.00 0.00 0.00 0.00 0.00 0.00 0.00 0.00 0.00 0.00 0.00 0.00 0.00 0.00 0.00 0.00 0.00 0.00 0.00 0.00 0.00 0.00 0.00 0.00 0.00 0.00 0.00 0.00 0.00 0.00 0.00 0.00 0.00 0.00 0.00
0.00 0.00 0.00 0.00 0.00 0.00 0.00 0.00 0.00 0.00 0.00 0.00 0.00 0.00 0.00 0.00 0.00 0.00 0.00 0.00 0.00 0.00 0.00 0.00 0.00 0.00 0.00 0.00 0.00 0.00 0.00 0.00 0.00 0.00 0.00 0.00 0.00 0.00 0.00 0.00 0.00 0.00 0.00 0.00 0.00
MSLP
1019.49 1018.98 1018.73 1018.16 1017.58 1017.19 1016.71 1016.28 1015.78 1015.21 1014.63 1014.12 1013.34 1012.88 1012.52 1012.15 1011.35 1011.17 1009.81 1007.66 1007.50 1007.53 1007.79 1007.72 1007.73 1008.01 1008.15 1008.42 1008.83 1009.41 1010.39 1010.51 1009.21 1008.30 1006.80 1004.95 1004.71 1003.69 1003.06 1003.23 1003.47 1003.84 1004.03 1003.31 1004.25
1019.66 1018.89 1018.59 1017.96 1017.39 1017.07 1016.57 1016.02 1015.57 1015.02 1014.36 1013.71 1013.05 1012.66 1012.36 1012.17 1011.59 1009.94 1007.14 1007.02 1007.21 1007.62 1007.67 1007.78 1007.99 1007.98 1008.28 1008.38 1008.57 1009.21 1009.96 1009.14 1007.87 1007.10 1006.49 1005.24 1004.80 1003.75 1003.50 1003.42 1003.64 1003.68 1003.50 1003.72 1004.59
1019.49 1019.19 1018.61 1017.51 1017.39 1016.86 1016.37 1015.83 1015.30 1014.72 1014.08 1013.28 1012.83 1012.42 1012.17 1012.22 1011.26 1007.91 1006.52 1007.05 1007.46 1007.52 1007.64 1007.73 1007.78 1007.91 1008.15 1008.22 1008.17 1008.40 1008.50 1007.72 1006.87 1006.48 1006.26 1005.52 1004.43 1003.92 1003.53 1003.79 1003.70 1003.65 1003.96 1004.23 1004.72
1019.18 1018.53 1017.98 1017.32 1017.17 1016.65 1016.18 1015.48 1014.91 1014.31 1013.78 1012.97 1012.56 1012.25 1011.93 1011.99 1009.95 1006.82 1006.49 1007.30 1007.53 1007.48 1007.55 1007.71 1007.86 1008.05 1008.35 1008.46 1008.14 1008.20 1007.49 1007.29 1006.40 1005.85 1005.96 1005.70 1004.97 1004.77 1005.32 1005.22 1003.85 1002.97 1003.44 1003.79 1004.91
1019.15 1018.54 1018.13 1017.49 1017.01 1016.59 1015.71 1014.96 1014.36 1013.79 1013.39 1012.60 1012.37 1012.08 1011.80 1010.84 1008.38 1006.40 1006.77 1007.32 1007.52 1007.54 1007.58 1007.71 1007.83 1008.16 1008.23 1008.12 1007.66 1007.48 1006.73 1006.43 1005.95 1005.90 1006.83 1005.95 1006.45 1006.83 1006.82 1006.12 1003.82 1003.72 1004.04 1004.37 1006.30
1019.04 1018.51 1018.04 1017.43 1016.80 1016.08 1015.15 1014.43 1013.59 1013.26 1012.83 1012.20 1012.24 1011.96 1011.85 1009.57 1006.49 1006.45 1006.82 1007.20 1007.42 1007.41 1007.50 1007.60 1007.58 1007.77 1007.93 1007.82 1007.84 1006.82 1006.40 1006.32 1005.54 1006.22 1006.98 1006.72 1007.47 1006.70 1008.10 1007.18 1005.72 1005.82 1005.95 1007.02 1007.77
1018.89 1018.46 1018.00 1016.86 1016.32 1015.71 1014.66 1013.46 1012.92 1012.60 1012.15 1011.86 1012.08 1011.69 1011.07 1008.00 1006.57 1006.66 1007.07 1006.99 1006.83 1007.06 1007.19 1007.06 1006.98 1007.50 1007.51 1007.54 1007.30 1007.10 1006.81 1005.79 1006.49 1006.27 1007.06 1006.53 1008.43 1009.29 1009.24 1008.49 1007.35 1007.29 1007.60 1008.14 1008.77
1018.77 1018.18 1017.45 1016.72 1016.09 1015.12 1013.78 1012.80 1012.33 1011.91 1011.36 1011.47 1011.84 1011.48 1009.62 1006.79 1006.64 1006.66 1007.02 1006.86 1006.52 1006.61 1006.67 1006.32 1006.77 1006.99 1007.46 1007.28 1007.36 1007.47 1007.31 1007.22 1007.12 1006.78 1007.35 1007.21 1010.36 1010.17 1009.96 1008.25 1008.54 1008.74 1009.05 1009.07 1009.64
1018.41 1018.04 1017.28 1016.64 1015.95 1014.37 1012.91 1012.46 1011.96 1010.94 1011.15 1011.17 1011.53 1011.07 1008.40 1006.50 1006.48 1005.85 1006.38 1006.71 1006.33 1006.25 1006.21 1006.15 1006.49 1007.35 1007.70 1007.94 1008.33 1008.40 1008.02 1007.94 1007.60 1007.64 1007.72 1008.40 1011.09 1010.86 1010.40 1009.83 1009.41 1009.83 1010.07 1010.42 1010.34
1018.72 1018.04 1017.12 1016.65 1015.63 1013.74 1012.98 1011.87 1010.85 1011.43 1011.00 1011.04 1010.93 1010.57 1007.84 1006.76 1005.93 1005.56 1005.79 1006.13 1006.38 1006.22 1006.33 1006.49 1007.34 1007.87 1008.63 1008.68 1008.80 1008.60 1008.03 1007.98 1008.26 1009.05 1009.05 1010.52 1011.62 1011.78 1011.10 1010.86 1010.45 1010.12 1011.05 1011.31 1011.58
1019.02 1018.17 1017.58 1016.57 1014.80 1014.31 1012.66 1010.84 1011.98 1011.60 1011.00 1010.79 1010.40 1009.43 1007.84 1006.54 1005.55 1005.39 1005.48 1005.79 1006.08 1006.59 1007.19 1007.27 1007.90 1007.84 1007.71 1008.04 1007.81 1007.75 1007.72 1008.43 1009.15 1009.52 1010.36 1011.87 1012.28 1012.35 1011.82 1011.79 1011.40 1011.35 1011.22 1011.96 1012.40
1018.81 1018.09 1017.16 1015.61 1014.58 1013.77 1012.85 1012.90 1014.33 1014.29 1012.34 1009.87 1009.47 1008.94 1007.65 1007.06 1006.24 1005.36 1005.34 1005.98 1006.29 1007.00 1007.26 1007.81 1007.54 1006.51 1006.86 1006.63 1007.10 1006.92 1007.50 1008.49 1009.13 1009.48 1010.69 1012.20 1012.85 1013.00 1012.37 1012.49 1012.33 1011.45 1011.99 1012.82 1012.81
1018.59 1017.63 1016.60 1015.47 1014.23 1013.55 1014.14 1013.85 1013.57 1013.13 1012.75 1009.61 1008.40 1007.61 1006.74 1006.78 1006.21 1005.46 1005.54 1005.88 1006.29 1006.78 1007.23 1007.53 1006.48 1005.94 1006.14 1006.30 1006.39 1006.73 1006.87 1007.80 1008.88 1009.92 1011.30 1012.20 1013.52 1013.71 1013.33 1012.55 1011.89 1011.39 1011.52 1013.76 1014.80
1018.62 1017.89 1017.42 1015.42 1014.41 1015.42 1014.19 1013.47 1013.02 1012.88 1012.12 1009.03 1007.42 1006.12 1006.04 1006.07 1005.91 1005.19 1005.30 1005.80 1006.25 1006.72 1006.82 1006.92 1006.04 1005.73 1005.59 1005.75 1006.16 1006.47 1006.75 1007.23 1008.91 1010.30 1011.36 1011.75 1014.13 1014.59 1014.47 1013.85 1013.11 1012.80 1013.68 1015.28 1015.73
1018.31 1017.91 1017.39 1016.72 1016.89 1015.89 1014.09 1013.37 1012.80 1012.45 1010.85 1007.94 1006.38 1005.37 1005.74 1006.10 1005.84 1005.28 1005.27 1005.58 1006.30 1006.72 1007.16 1006.64 1005.82 1005.54 1005.31 1005.51 1005.90 1006.41 1006.72 1007.74 1008.69 1010.32 1011.53 1012.57 1013.55 1015.43 1015.14 1015.26 1014.84 1014.43 1014.67 1015.82 1016.07
1018.23 1017.84 1017.56 1016.84 1016.99 1015.04 1014.02 1013.33 1012.71 1012.19 1009.30 1007.22 1005.83 1005.63 1006.11 1006.10 1005.92 1005.70 1005.68 1005.82 1006.33 1006.76 1007.03 1006.74 1005.78 1005.35 1005.14 1005.42 1005.94 1006.40 1007.33 1008.56 1010.07 1011.43 1012.82 1013.56 1014.01 1015.20 1015.35 1015.29 1015.32 1015.28 1015.37 1015.84 1015.72
1018.15 1017.40 1017.52 1016.80 1015.40 1014.46 1013.91 1013.55 1012.92 1011.03 1008.21 1006.94 1006.05 1006.05 1006.20 1006.43 1006.37 1006.35 1006.48 1006.79 1007.39 1007.68 1008.07 1007.28 1006.40 1005.59 1005.23 1005.73 1006.35 1007.19 1008.64 1010.45 1011.77 1013.07 1014.11 1014.03 1014.40 1015.21 1015.00 1014.98 1015.20 1015.24 1015.28 1015.62 1015.42
1017.65 1016.68 1016.15 1015.30 1014.76 1014.63 1014.27 1013.78 1012.43 1009.67 1007.95 1006.28 1005.90 1006.32 1006.67 1006.56 1006.76 1006.96 1007.34 1007.92 1007.92 1008.28 1008.83 1008.65 1007.62 1006.81 1006.15 1006.49 1007.31 1008.35 1009.52 1011.22 1012.92 1014.24 1014.58 1014.30 1015.11 1015.19 1015.10 1015.06 1014.76 1015.10 1015.49 1015.79 1016.06
1017.29 1016.33 1015.56 1014.00 1014.26 1014.48 1014.45 1013.74 1011.49 1009.24 1007.60 1006.51 1006.28 1006.72 1006.97 1006.84 1007.16 1007.69 1008.42 1009.03 1008.92 1008.88 1009.18 1009.20 1008.68 1007.63 1007.03 1006.91 1007.55 1008.81 1010.20 1011.31 1013.04 1014.65 1015.24 1015.76 1015.67 1015.24 1015.32 1015.37 1015.44 1015.78 1015.98 1016.46 1016.50
1018.42 1017.23 1015.12 1013.53 1013.81 1014.28 1014.41 1013.43 1011.07 1008.89 1007.25 1006.67 1006.71 1006.93 1007.38 1007.42 1007.79 1008.36 1009.20 1009.62 1009.43 1009.48 1009.23 1010.08 1009.79 1008.94 1008.13 1007.76 1008.05 1008.78 1010.34 1011.78 1013.54 1015.57 1016.53 1016.54 1016.46 1016.47 1016.04 1016.08 1016.27 1016.39 1016.84 1016.99 1016.77
1018.66 1016.92 1013.98 1013.47 1013.97 1014.43 1014.57 1013.06 1010.66 1008.28 1007.08 1006.77 1006.83 1007.15 1007.56 1007.93 1008.36 1009.33 1010.07 1010.14 1009.85 1009.99 1009.98 1010.77 1010.94 1010.50 1009.46 1009.82 1010.01 1010.09 1011.10 1012.88 1014.55 1015.94 1016.98 1017.52 1017.69 1017.06 1016.73 1016.70 1017.12 1017.36 1017.50 1017.40 1017.35
1018.65 1017.34 1014.22 1014.00 1014.57 1015.00 1014.36 1012.47 1010.39 1008.29 1007.11 1006.88 1006.78 1007.13 1007.67 1008.32 1009.37 1009.78 1010.39 1010.45 1010.35 1010.48 1011.29 1012.06 1012.62 1012.49 1011.70 1010.76 1010.83 1010.83 1011.91 1013.26 1015.11 1016.55 1017.38 1017.91 1018.45 1017.84 1017.72 1017.75 1017.99 1018.09 1018.03 1017.81 1017.51
1019.09 1017.40 1014.36 1014.16 1014.98 1015.05 1013.66 1012.06 1010.40 1008.55 1007.81 1007.42 1007.39 1007.48 1007.86 1008.79 1009.89 1010.44 1010.69 1010.88 1010.75 1011.16 1012.14 1012.69 1014.08 1013.94 1012.92 1012.32 1011.81 1012.02 1012.57 1013.32 1014.92 1016.06 1017.97 1018.62 1018.99 1018.48 1018.67 1018.69 1018.79 1018.60 1018.30 1018.05 1017.62
1019.22 1017.84 1015.91 1015.47 1015.29 1014.79 1013.81 1012.16 1010.24 1008.50 1008.07 1007.89 1008.13 1008.13 1008.72 1009.61 1009.94 1010.84 1011.26 1011.41 1011.59 1012.00 1012.56 1013.05 1014.90 1015.12 1014.80 1014.47 1014.03 1013.87 1013.82 1014.06 1015.05 1016.77 1018.20 1018.93 1019.26 1019.39 1019.41 1019.35 1019.23 1019.08 1018.76 1018.37 1017.85
1019.34 1018.35 1017.11 1016.11 1015.55 1014.71 1013.54 1012.29 1010.88 1009.51 1008.63 1008.61 1008.92 1009.10 1009.45 1010.54 1010.92 1011.49 1011.66 1012.01 1012.32 1012.67 1013.25 1014.16 1015.81 1015.76 1015.39 1015.03 1014.87 1015.18 1015.44 1015.39 1016.11 1017.08 1018.08 1019.29 1019.63 1019.80 1019.76 1019.69 1019.51 1019.25 1018.82 1018.44 1017.97
1019.37 1018.37 1017.09 1016.23 1015.35 1014.53 1013.87 1012.36 1011.25 1010.29 1009.85 1009.70 1009.76 1009.75 1009.73 1010.55 1010.83 1011.69 1012.07 1012.62 1013.05 1013.53 1014.33 1015.35 1016.37 1016.38 1016.37 1015.89 1015.74 1016.24 1016.67 1016.89 1017.56 1018.31 1019.09 1019.53 1020.00 1020.04 1019.77 1019.67 1019.66 1019.48 1019.16 1018.79 1018.38
1018.82 1018.07 1017.71 1016.60 1015.47 1014.64 1013.61 1012.31 1011.54 1010.92 1010.46 1010.07 1010.11 1010.34 1010.56 1011.08 1011.28 1011.84 1012.13 1012.83 1013.39 1014.26 1015.47 1016.28 1017.11 1017.53 1017.38 1016.96 1016.62 1017.17 1017.87 1018.06 1018.73 1019.07 1019.50 1020.17 1020.49 1020.41 1020.30 1020.11 1019.88 1019.73 1019.41 1019.07 1018.67
Thickness
5707 5717 5721 5729 5736 5742 5749 5754 5760 5766 5772 5779 5785 5787 5790 5793 5800 5801 5806 5824 5826 5825 5822 5820 5816 5810 5807 5797 5795 5785 5748 5735 5761 5765 5781 5805 5803 5825 5835 5823 5827 5826 5820 5837 5833
5701 5714 5719 5727 5734 5740 5748 5755 5760 5766 5773 5781 5787 5789 5791 5792 5796 5804 5832 5832 5830 5826 5819 5811 5804 5804 5791 5794 5789 5770 5743 5762 5783 5790 5789 5803 5805 5816 5819 5820 5819 5823 5832 5834 5828
5700 5706 5716 5728 5732 5740 5748 5754 5760 5767 5774 5783 5787 5790 5792 5792 5797 5816 5837 5832 5827 5827 5824 5818 5811 5802 5790 5794 5792 5782 5764 5782 5793 5797 5796 5801 5808 5819 5816 5810 5816 5814 5820 5823 5821
5700 5710 5718 5726 5731 5739 5747 5754 5762 5769 5776 5785 5789 5791 5793 5792 5780 5829 5837 5829 5827 5827 5823 5813 5804 5791 5782 5778 5791 5775 5786 5789 5799 5808 5802 5799 5809 5807 5797 5797 5821 5833 5833 5832 5817
5696 5706 5714 5722 5730 5737 5748 5757 5765 5772 5778 5786 5789 5791 5793 5794 5801 5837 5833 5828 5826 5824 5815 5806 5797 5790 5781 5781 5787 5785 5800 5803 5806 5801 5789 5798 5784 5780 5782 5800 5826 5829 5828 5823 5805
5692 5702 5711 5719 5729 5739 5750 5759 5769 5775 5782 5788 5788 5791 5790 5786 5836 5837 5832 5828 5824 5820 5812 5809 5803 5798 5790 5789 5785 5800 5798 5796 5808 5797 5792 5788 5781 5787 5779 5795 5807 5807 5804 5792 5784
5690 5699 5708 5721 5730 5740 5752 5765 5774 5779 5785 5789 5788 5792 5789 5798 5834 5835 5829 5827 5829 5823 5813 5815 5813 5802 5798 5787 5797 5795 5788 5798 5792 5800 5788 5804 5769 5760 5774 5785 5790 5790 5791 5785 5774
5687 5698 5709 5719 5730 5743 5756 5768 5777 5783 5789 5791 5789 5790 5789 5830 5832 5831 5827 5825 5830 5828 5823 5825 5818 5807 5798 5801 5787 5779 5780 5763 5787 5791 5792 5793 5739 5763 5772 5786 5778 5779 5776 5776 5769
5687 5696 5708 5718 5728 5745 5762 5770 5777 5788 5789 5791 5788 5788 5791 5831 5822 5834 5831 5818 5824 5826 5825 5827 5818 5796 5790 5772 5754 5756 5749 5759 5774 5784 5786 5779 5745 5761 5770 5774 5771 5767 5765 5762 5763
5680 5690 5705 5715 5727 5748 5758 5773 5783 5782 5788 5790 5790 5783 5808 5805 5825 5833 5833 5826 5813 5815 5807 5806 5787 5774 5760 5753 5735 5751 5755 5761 5760 5769 5769 5749 5742 5749 5759 5763 5766 5768 5757 5752 5749
5673 5685 5697 5712 5731 5738 5759 5778 5765 5769 5781 5779 5781 5786 5799 5818 5834 5827 5831 5820 5814 5799 5776 5786 5767 5758 5771 5766 5771 5770 5768 5751 5755 5767 5751 5735 5735 5742 5751 5749 5756 5755 5755 5747 5742
5670 5679 5695 5716 5730 5742 5754 5753 5743 5748 5750 5785 5786 5788 5803 5811 5800 5817 5829 5801 5794 5773 5783 5765 5758 5786 5785 5785 5771 5774 5762 5752 5759 5767 5750 5733 5729 5736 5748 5744 5747 5751 5748 5741 5742
5668 5680 5697 5715 5730 5739 5738 5743 5752 5758 5741 5772 5790 5793 5803 5806 5797 5802 5813 5801 5789 5778 5773 5759 5781 5799 5790 5780 5773 5770 5769 5758 5750 5756 5747 5733 5718 5721 5740 5748 5756 5757 5756 5735 5722
5667 5676 5689 5712 5723 5719 5734 5746 5753 5757 5726 5765 5783 5798 5805 5806 5790 5818 5817 5803 5789 5777 5778 5771 5793 5791 5784 5780 5775 5759 5781 5778 5750 5737 5719 5745 5691 5702 5718 5728 5739 5738 5727 5709 5710
5665 5675 5685 5697 5698 5712 5735 5744 5751 5751 5711 5772 5785 5818 5805 5789 5795 5800 5820 5803 5779 5779 5777 5769 5786 5783 5779 5782 5786 5766 5782 5769 5766 5738 5729 5724 5701 5696 5706 5702 5710 5718 5714 5705 5703
5662 5670 5679 5691 5696 5718 5731 5741 5745 5719 5715 5760 5786 5782 5778 5785 5787 5796 5796 5806 5798 5782 5780 5776 5798 5795 5791 5792 5785 5787 5774 5755 5740 5725 5698 5710 5701 5689 5692 5696 5702 5706 5706 5703 5703
5661 5671 5676 5688 5707 5719 5729 5730 5706 5703 5762 5756 5767 5774 5770 5767 5771 5778 5775 5768 5757 5752 5748 5764 5774 5792 5800 5780 5780 5768 5743 5702 5703 5685 5690 5708 5694 5688 5704 5707 5702 5701 5703 5700 5699
5662 5675 5682 5697 5708 5714 5719 5711 5700 5738 5745 5778 5776 5768 5757 5767 5768 5769 5762 5750 5769 5762 5740 5731 5733 5769 5787 5779 5764 5756 5743 5703 5699 5682 5687 5705 5681 5683 5700 5702 5705 5700 5694 5689 5683
5661 5674 5687 5702 5709 5712 5706 5686 5709 5737 5757 5761 5766 5750 5750 5764 5763 5757 5749 5744 5757 5762 5741 5733 5741 5774 5778 5784 5774 5757 5727 5740 5702 5693 5684 5678 5689 5699 5696 5693 5690 5687 5683 5674 5671
5646 5660 5684 5705 5709 5707 5690 5688 5715 5746 5761 5761 5744 5751 5734 5749 5750 5745 5743 5753 5753 5757 5765 5747 5733 5760 5767 5777 5773 5759 5754 5718 5697 5677 5672 5670 5675 5664 5682 5683 5681 5676 5668 5664 5661
5641 5659 5691 5702 5702 5689 5677 5690 5721 5754 5765 5754 5749 5745 5746 5745 5745 5736 5733 5747 5756 5757 5753 5743 5731 5740 5754 5742 5736 5735 5727 5708 5695 5681 5661 5650 5654 5682 5684 5682 5669 5660 5656 5654 5651
5635 5648 5686 5693 5675 5666 5677 5703 5731 5749 5762 5758 5760 5754 5747 5746 5735 5732 5731 5741 5755 5756 5738 5734 5713 5707 5734 5750 5745 5748 5731 5710 5683 5688 5663 5652 5648 5676 5670 5665 5660 5655 5652 5650 5648
5628 5643 5681 5686 5661 5664 5687 5709 5728 5742 5746 5749 5749 5754 5755 5742 5724 5734 5737 5749 5752 5745 5735 5735 5698 5685 5707 5719 5732 5725 5729 5719 5693 5678 5662 5647 5643 5667 5660 5654 5651 5649 5648 5645 5643
5624 5640 5659 5667 5666 5676 5685 5701 5714 5744 5747 5749 5745 5748 5741 5733 5736 5731 5731 5743 5747 5741 5733 5729 5695 5688 5677 5693 5707 5705 5709 5712 5696 5666 5658 5650 5646 5649 5647 5645 5644 5642 5640 5639 5637
5616 5633 5649 5653 5662 5672 5690 5697 5707 5719 5739 5737 5733 5736 5737 5724 5724 5723 5731 5733 5734 5732 5728 5718 5692 5701 5703 5703 5707 5698 5694 5695 5685 5679 5661 5649 5643 5642 5642 5639 5638 5638 5637 5634 5631
5616 5631 5645 5652 5665 5674 5679 5694 5704 5711 5718 5721 5721 5730 5735 5725 5729 5717 5724 5722 5720 5722 5715 5705 5689 5696 5696 5697 5697 5683 5682 5680 5674 5667 5654 5647 5635 5639 5644 5640 5633 5626 5622 5619 5615
5613 5629 5636 5648 5660 5671 5677 5692 5699 5708 5717 5726 5726 5723 5722 5727 5733 5734 5734 5723 5723 5715 5700 5695 5684 5674 5680 5683 5686 5664 5667 5663 5657 5654 5650 5630 5631 5633 5629 5625 5623 5617 5611 5607 5605